W2JV-2 Weather Reports


Display with metric or nautical units.
time (UTC)temp
F
wind
direction
speed
MPH
gust
MPH
rain 1hr
in
rain 24hr
in
rain mn
in
humidity
%
barometer
mb
20260506153003 65 192 3.0 6.0 0.00 0.00 0.00 67 1009.8
20260506152503 65 195 4.0 7.0 0.00 0.00 0.00 67 1009.8
20260506152004 65 192 3.0 10.0 0.00 0.00 0.00 67 1009.8
20260506151004 64 215 5.0 8.0 0.00 0.00 0.00 67 1009.8
20260506150504 64 172 3.0 9.0 0.00 0.00 0.00 67 1009.5
20260506150003 64 193 4.0 7.0 0.00 0.00 0.00 68 1009.5
20260506145504 64 173 3.0 8.0 0.00 0.00 0.00 68 1009.5
20260506145004 64 231 3.0 8.0 0.00 0.00 0.00 67 1009.5
20260506144504 64 211 4.0 10.0 0.00 0.00 0.00 67 1009.4
20260506144003 65 209 2.0 6.0 0.00 0.00 0.00 67 1009.4
20260506143504 65 216 5.0 9.0 0.00 0.00 0.00 67 1009.6
20260506142503 65 208 3.0 10.0 0.00 0.00 0.00 67 1009.7
20260506142004 65 227 3.0 8.0 0.00 0.00 0.00 67 1009.8
20260506141503 65 213 5.0 13.0 0.00 0.00 0.00 67 1009.7
20260506141004 64 200 5.0 14.0 0.00 0.00 0.00 67 1009.8
20260506140503 64 224 5.0 16.0 0.00 0.00 0.00 67 1009.8
20260506140003 64 230 5.0 12.0 0.00 0.00 0.00 68 1009.8
20260506135503 64 218 3.0 9.0 0.00 0.00 0.00 68 1009.9
20260506134504 64 218 5.0 10.0 0.00 0.00 0.00 68 1010.0
20260506134004 63 218 5.0 12.0 0.00 0.00 0.00 68 1010.0
20260506133504 64 208 5.0 14.0 0.00 0.00 0.00 68 1010.0
20260506133004 64 189 6.0 12.0 0.00 0.00 0.00 68 1010.0
20260506132503 63 207 3.0 14.0 0.00 0.00 0.00 69 1009.9
20260506132003 63 218 2.0 13.0 0.00 0.00 0.00 69 1009.7
20260506131503 63 213 6.0 12.0 0.00 0.00 0.00 68 1009.8
20260506131004 63 223 4.0 12.0 0.00 0.00 0.00 69 1009.8
20260506130503 63 190 3.0 9.0 0.00 0.00 0.00 69 1009.7
20260506130003 63 220 5.0 10.0 0.00 0.00 0.00 69 1009.7
20260506125503 63 217 4.0 9.0 0.00 0.00 0.00 69 1009.8
20260506125003 63 198 3.0 13.0 0.00 0.00 0.00 69 1009.7
20260506124504 63 226 3.0 17.0 0.00 0.00 0.00 69 1009.7
20260506123504 63 208 4.0 9.0 0.00 0.00 0.00 70 1010.0
20260506123004 62 184 3.0 9.0 0.00 0.00 0.00 70 1010.1
20260506122503 62 179 5.0 12.0 0.00 0.00 0.00 70 1010.1
20260506122003 62 206 5.0 13.0 0.00 0.00 0.00 71 1010.2
20260506121503 62 165 4.0 9.0 0.00 0.00 0.00 71 1010.4
20260506121004 61 232 2.0 9.0 0.00 0.00 0.00 72 1010.3
20260506120503 61 211 3.0 14.0 0.00 0.00 0.00 72 1010.2
20260506120003 61 173 3.0 8.0 0.00 0.00 0.00 73 1010.3
20260506114502 60 212 2.0 8.0 0.00 0.00 0.00 75 1010.0
20260506114003 60 186 2.0 7.0 0.00 0.00 0.00 75 1010.1
20260506113503 59 215 2.0 7.0 0.00 0.00 0.00 76 1010.0
20260506113003 59 194 2.0 5.0 0.00 0.00 0.00 76 1010.0
20260506112503 59 191 2.0 5.0 0.00 0.00 0.00 76 1010.0
20260506112004 59 189 3.0 7.0 0.00 0.00 0.00 76 1010.1
20260506110503 58 207 2.0 5.0 0.00 0.00 0.00 76 1010.3
20260506110004 58 197 2.0 5.0 0.00 0.00 0.00 76 1010.2
20260506105504 58 205 1.0 3.0 0.00 0.00 0.00 76 1010.1
20260506105003 58 190 2.0 7.0 0.00 0.00 0.00 76 1010.1
20260506104503 58 194 2.0 7.0 0.00 0.00 0.00 76 1010.2
20260506104003 58 192 2.0 6.0 0.00 0.00 0.00 76 1010.1
20260506102504 58 191 2.0 3.0 0.00 0.00 0.00 76 1010.0
20260506101503 58 200 2.0 6.0 0.00 0.00 0.00 76 1010.0
20260506101004 58 196 2.0 5.0 0.00 0.00 0.00 76 1010.0
20260506100503 58 191 2.0 7.0 0.00 0.00 0.00 76 1010.1
20260506095504 58 215 2.0 8.0 0.00 0.00 0.00 75 1010.0
20260506095004 58 166 2.0 5.0 0.00 0.00 0.00 75 1010.0
20260506094503 58 220 2.0 5.0 0.00 0.00 0.00 75 1010.0
20260506094003 58 220 2.0 7.0 0.00 0.00 0.00 75 1009.9
20260506093504 58 214 2.0 9.0 0.00 0.00 0.00 75 1009.9
20260506093003 58 213 3.0 8.0 0.00 0.00 0.00 75 1009.9
20260506092503 58 217 3.0 10.0 0.00 0.00 0.00 75 1009.9
20260506092003 58 210 2.0 8.0 0.00 0.00 0.00 75 1010.0
20260506091504 58 209 2.0 8.0 0.00 0.00 0.00 75 1010.0
20260506090503 58 209 2.0 7.0 0.00 0.00 0.00 74 1010.0
20260506090003 58 202 2.0 6.0 0.00 0.00 0.00 74 1010.1
20260506084503 58 201 2.0 6.0 0.00 0.00 0.00 74 1010.3
20260506083503 58 183 2.0 6.0 0.00 0.00 0.00 73 1010.4
20260506083004 58 155 2.0 5.0 0.00 0.00 0.00 73 1010.4
20260506082503 58 178 2.0 6.0 0.00 0.00 0.00 73 1010.4
20260506082003 58 205 2.0 5.0 0.00 0.00 0.00 73 1010.4
20260506081503 58 205 2.0 8.0 0.00 0.00 0.00 73 1010.4
20260506080503 58 197 2.0 6.0 0.00 0.00 0.00 73 1010.4
20260506073504 58 202 2.0 7.0 0.00 0.00 0.00 72 1010.5
20260506073003 58 181 2.0 7.0 0.00 0.00 0.00 72 1010.5
20260506072503 58 196 2.0 6.0 0.00 0.00 0.00 72 1010.6
20260506072003 58 195 2.0 6.0 0.00 0.00 0.00 72 1010.6
20260506071503 59 192 2.0 5.0 0.00 0.00 0.00 72 1010.5
20260506071003 59 174 2.0 5.0 0.00 0.00 0.00 72 1010.6
20260506070504 59 186 2.0 5.0 0.00 0.00 0.00 72 1010.7
20260506062503 59 188 2.0 5.0 0.00 0.00 0.00 71 1010.6
20260506062003 59 210 2.0 6.0 0.00 0.00 0.00 71 1010.6
20260506061003 59 196 2.0 6.0 0.00 0.00 0.00 71 1010.5
20260506051003 60 195 2.0 7.0 0.00 0.00 0.00 69 1010.7
20260506050503 61 212 2.0 8.0 0.00 0.00 0.00 69 1010.8
20260506044503 61 219 2.0 8.0 0.00 0.00 0.00 69 1010.9
20260506043003 61 206 3.0 8.0 0.00 0.00 0.00 68 1010.8
20260506042503 62 204 3.0 8.0 0.00 0.00 0.00 68 1010.8
20260506042003 62 203 2.0 12.0 0.00 0.00 0.00 68 1010.8
20260506041503 62 205 4.0 10.0 0.00 0.00 0.00 68 1010.8
20260506040503 62 210 3.0 9.0 0.00 0.00 0.00 67 1010.9
20260506040004 62 199 3.0 9.0 0.00 0.00 0.00 67 1010.9
20260506035522 62 205 2.0 7.0 0.00 0.00 0.00 67 1010.9
20260506035015 63 218 2.0 9.0 0.00 0.00 0.00 67 1010.9
20260506034509 63 211 4.0 10.0 0.00 0.00 0.00 67 1010.8
20260506034003 63 214 3.0 10.0 0.00 0.00 0.00 67 1010.8
20260506033004 63 213 4.0 10.0 0.00 0.00 0.00 66 1010.7
20260506032504 63 211 3.0 9.0 0.00 0.00 0.00 66 1010.7
20260506032004 63 204 3.0 8.0 0.00 0.00 0.00 66 1010.7
20260506031504 63 220 5.0 15.0 0.00 0.00 0.00 66 1010.7
20260506031004 64 225 4.0 10.0 0.00 0.00 0.00 66 1010.7
20260506030503 64 222 4.0 12.0 0.00 0.00 0.00 66 1010.7
20260506030003 64 210 3.0 8.0 0.00 0.00 0.00 65 1010.7
20260506025504 64 211 4.0 10.0 0.00 0.00 0.00 65 1010.7
20260506025003 64 220 5.0 12.0 0.00 0.00 0.00 65 1010.8
20260506024503 64 189 5.0 12.0 0.00 0.00 0.00 65 1010.7
20260506024005 64 190 3.0 15.0 0.00 0.00 0.00 65 1010.7
20260506023503 64 200 3.0 15.0 0.00 0.00 0.00 65 1010.7
20260506023003 64 226 7.0 14.0 0.00 0.00 0.00 64 1010.8
20260506022503 64 215 6.0 17.0 0.00 0.00 0.00 64 1010.8
20260506022003 64 216 4.0 10.0 0.00 0.00 0.00 64 1010.8
20260506021003 64 222 4.0 13.0 0.00 0.00 0.00 63 1010.8
20260506020503 65 206 5.0 12.0 0.00 0.00 0.00 62 1010.8
20260506020004 65 198 5.0 12.0 0.00 0.00 0.00 62 1010.7
20260506015503 65 207 6.0 14.0 0.00 0.00 0.00 61 1010.7
20260506015004 65 224 6.0 16.0 0.00 0.00 0.00 61 1010.7
20260506014503 65 209 5.0 10.0 0.00 0.00 0.00 61 1010.6
20260506014003 65 203 6.0 13.0 0.00 0.00 0.00 60 1010.6
20260506013503 65 202 5.0 14.0 0.00 0.00 0.00 60 1010.5
20260506013003 65 204 6.0 17.0 0.00 0.00 0.00 60 1010.4
20260506012503 65 185 5.0 15.0 0.00 0.00 0.00 60 1010.3
20260506012003 65 226 5.0 12.0 0.00 0.00 0.00 60 1010.4
20260506011503 65 223 5.0 13.0 0.00 0.00 0.00 60 1010.3
20260506010503 65 201 3.0 10.0 0.00 0.00 0.00 60 1010.1
20260506010003 65 212 4.0 9.0 0.00 0.00 0.00 60 1010.0
20260506005504 65 234 5.0 10.0 0.00 0.00 0.00 60 1010.0
20260506005003 65 212 4.0 15.0 0.00 0.00 0.00 60 1009.9
20260506004504 65 219 7.0 18.0 0.00 0.00 0.00 60 1009.9
20260506003503 65 203 6.0 12.0 0.00 0.00 0.00 59 1009.8
20260506003003 66 201 3.0 10.0 0.00 0.00 0.00 59 1010.0
20260506002504 66 219 6.0 15.0 0.00 0.00 0.00 59 1009.8
20260506001504 66 204 5.0 14.0 0.00 0.00 0.00 59 1009.7
20260506001003 66 232 7.0 20.0 0.00 0.00 0.00 59 1009.6
20260506000004 66 223 7.0 23.0 0.00 0.00 0.00 58 1009.7
20260505235504 66 230 7.0 13.0 0.00 0.00 0.00 59 1009.5
20260505234503 66 204 3.0 12.0 0.00 0.00 0.00 58 1009.4
20260505234004 66 223 3.0 12.0 0.00 0.00 0.00 57 1009.3
20260505233504 66 211 8.0 15.0 0.00 0.00 0.00 57 1009.3
20260505233003 66 227 6.0 15.0 0.00 0.00 0.00 57 1009.2
20260505232504 67 205 7.0 13.0 0.00 0.00 0.00 56 1009.1
20260505231503 67 202 5.0 13.0 0.00 0.00 0.00 56 1008.9
20260505231004 67 203 6.0 12.0 0.00 0.00 0.00 55 1008.8
20260505230504 68 223 5.0 12.0 0.00 0.00 0.00 55 1008.8
20260505230003 68 223 5.0 12.0 0.00 0.00 0.00 54 1008.8
20260505225004 68 190 6.0 12.0 0.00 0.00 0.00 53 1008.8
20260505224504 68 194 5.0 10.0 0.00 0.00 0.00 53 1008.8
20260505224005 69 211 5.0 12.0 0.00 0.00 0.00 53 1008.7
20260505223005 69 195 6.0 13.0 0.00 0.00 0.00 53 1008.7
20260505222503 69 216 5.0 15.0 0.00 0.00 0.00 53 1008.7
20260505222005 69 227 6.0 15.0 0.00 0.00 0.00 53 1008.6
20260505221503 69 192 6.0 17.0 0.00 0.00 0.00 53 1008.6
20260505221003 70 178 5.0 14.0 0.00 0.00 0.00 53 1008.6
20260505220503 70 205 7.0 18.0 0.00 0.00 0.00 52 1008.6
20260505220004 71 199 6.0 15.0 0.00 0.00 0.00 52 1008.4
20260505215503 71 213 5.0 17.0 0.00 0.00 0.00 52 1008.6
20260505215003 71 189 7.0 16.0 0.00 0.00 0.00 51 1008.6
20260505214504 71 234 5.0 20.0 0.00 0.00 0.00 52 1008.5
20260505214003 71 235 5.0 12.0 0.00 0.00 0.00 52 1008.4
20260505213504 71 200 5.0 12.0 0.00 0.00 0.00 52 1008.4
20260505213004 71 223 6.0 13.0 0.00 0.00 0.00 52 1008.4
20260505212503 71 229 7.0 12.0 0.00 0.00 0.00 53 1008.3
20260505212003 71 198 5.0 13.0 0.00 0.00 0.00 53 1008.3
20260505211504 71 204 3.0 10.0 0.00 0.00 0.00 53 1008.2
20260505211004 71 236 8.0 18.0 0.00 0.00 0.00 52 1008.2
20260505210503 71 234 7.0 22.0 0.00 0.00 0.00 51 1008.2
20260505210003 72 233 6.0 20.0 0.00 0.00 0.00 52 1008.2
20260505205504 72 223 8.0 15.0 0.00 0.00 0.00 51 1008.3
20260505205004 72 225 3.0 8.0 0.00 0.00 0.00 53 1008.3
20260505204504 72 185 4.0 8.0 0.00 0.00 0.00 52 1008.2
20260505204004 73 170 5.0 7.0 0.00 0.00 0.00 51 1008.3
20260505203503 73 201 5.0 9.0 0.00 0.00 0.00 50 1008.3
20260505203004 74 200 3.0 12.0 0.00 0.00 0.00 51 1008.3
20260505202504 75 167 3.0 8.0 0.00 0.00 0.00 49 1008.4
20260505202004 75 229 3.0 10.0 0.00 0.00 0.00 49 1008.4
20260505201503 75 246 2.0 8.0 0.00 0.00 0.00 50 1008.4
20260505201004 75 233 3.0 12.0 0.00 0.00 0.00 50 1008.4
20260505200505 75 222 6.0 14.0 0.00 0.00 0.00 49 1008.6
20260505200004 75 211 7.0 12.0 0.00 0.00 0.00 47 1008.6
20260505195504 76 199 6.0 14.0 0.00 0.00 0.00 47 1008.7
20260505195004 76 226 7.0 16.0 0.00 0.00 0.00 47 1008.7
20260505194503 76 223 2.0 8.0 0.00 0.00 0.00 49 1008.7
20260505194004 76 229 5.0 10.0 0.00 0.00 0.00 48 1008.7
20260505193503 76 229 3.0 9.0 0.00 0.00 0.00 50 1008.8
20260505193004 75 227 3.0 8.0 0.00 0.00 0.00 49 1008.9
20260505192504 75 173 3.0 15.0 0.00 0.00 0.00 50 1009.0
20260505191503 75 202 3.0 7.0 0.00 0.00 0.00 49 1009.2
20260505191003 75 204 5.0 12.0 0.00 0.00 0.00 48 1009.2
20260505190504 75 204 5.0 8.0 0.00 0.00 0.00 48 1009.4
20260505190005 75 184 6.0 13.0 0.00 0.00 0.00 48 1009.5
20260505185504 75 206 5.0 9.0 0.00 0.00 0.00 50 1009.5
20260505185005 75 192 5.0 10.0 0.00 0.00 0.00 49 1009.5
20260505184503 75 198 5.0 13.0 0.00 0.00 0.00 49 1009.5
20260505184003 76 205 5.0 13.0 0.00 0.00 0.00 49 1009.6
20260505183505 76 224 7.0 14.0 0.00 0.00 0.00 48 1009.5
20260505183004 75 205 5.0 9.0 0.00 0.00 0.00 50 1009.5
20260505182004 76 222 6.0 12.0 0.00 0.00 0.00 49 1009.6
20260505181504 75 192 6.0 13.0 0.00 0.00 0.00 49 1009.7
20260505181004 75 236 3.0 16.0 0.00 0.00 0.00 50 1009.7
20260505180503 76 213 5.0 12.0 0.00 0.00 0.00 49 1009.9
20260505180004 76 195 5.0 13.0 0.00 0.00 0.00 48 1009.9
20260505175504 76 220 6.0 13.0 0.00 0.00 0.00 49 1010.0
20260505175004 76 233 5.0 14.0 0.00 0.00 0.00 49 1009.9
20260505174503 76 241 3.0 10.0 0.00 0.00 0.00 50 1009.9
20260505174004 76 204 2.0 8.0 0.00 0.00 0.00 51 1009.8
20260505173003 76 182 4.0 9.0 0.00 0.00 0.00 51 1009.9
20260505172503 76 204 3.0 7.0 0.00 0.00 0.00 50 1010.0
20260505172005 76 193 4.0 9.0 0.00 0.00 0.00 50 1010.0
20260505170503 76 194 3.0 6.0 0.00 0.00 0.00 49 1010.0
20260505170003 76 147 2.0 8.0 0.00 0.00 0.00 51 1010.0
20260505165504 76 211 3.0 7.0 0.00 0.00 0.00 51 1010.0
20260505165003 76 226 4.0 9.0 0.00 0.00 0.00 50 1010.1
20260505164504 76 213 3.0 8.0 0.00 0.00 0.00 49 1010.2
20260505164003 77 183 3.0 7.0 0.00 0.00 0.00 49 1010.3
20260505163504 77 194 5.0 8.0 0.00 0.00 0.00 49 1010.4
20260505163005 77 200 2.0 7.0 0.00 0.00 0.00 49 1010.4
20260505162504 77 176 3.0 7.0 0.00 0.00 0.00 49 1010.4
20260505162004 77 192 4.0 8.0 0.00 0.00 0.00 49 1010.4
20260505161503 77 184 4.0 8.0 0.00 0.00 0.00 50 1010.4
20260505161003 76 223 3.0 8.0 0.00 0.00 0.00 49 1010.5
20260505160503 76 159 3.0 8.0 0.00 0.00 0.00 49 1010.7